This is the latest recevied weather packets stored in our database for station/object DL3TR-13. If no packets are shown the sender has not sent any weather packets the latest 10 day(s).
| Time | Temp. | Humidity | Pressure | Rain* | Wind** | Luminosity | Snow |
|---|---|---|---|---|---|---|---|
| 1778069590 | 15° C | 68% | 1004.4 hPa | 0 mm | - | 121 W/m² | - |
| 1778068990 | 15° C | 67% | 1004.2 hPa | 0 mm | - | 230 W/m² | - |
| 1778068391 | 15° C | 67% | 1004.1 hPa | 0 mm | - | 274 W/m² | - |
| 1778067790 | 15.56° C | 66% | 1003.9 hPa | 0 mm | - | 241 W/m² | - |
| 1778067191 | 15° C | 67% | 1004.1 hPa | 0 mm | - | 287 W/m² | - |
| 1778066590 | 15° C | 66% | 1004.1 hPa | 0 mm | - | 281 W/m² | - |
| 1778065990 | 15° C | 68% | 1004.6 hPa | 0 mm | - | 230 W/m² | - |
| 1778065391 | 15° C | 66% | 1004.3 hPa | 0 mm | - | 295 W/m² | - |
| 1778064790 | 15.56° C | 66% | 1004.5 hPa | 0 mm | - | 345 W/m² | - |
| 1778064191 | 15.56° C | 67% | 1004.6 hPa | 0 mm | - | 364 W/m² | - |
| 1778063590 | 15.56° C | 68% | 1004.6 hPa | 0 mm | - | 638 W/m² | - |
| 1778062990 | 15.56° C | 69% | 1004.6 hPa | 0 mm | - | 687 W/m² | - |
| 1778062390 | 15° C | 71% | 1004.7 hPa | 0 mm | - | 786 W/m² | - |
| 1778061791 | 14.44° C | 75% | 1004.6 hPa | 0 mm | - | 671 W/m² | - |
| 1778061190 | 13.89° C | 75% | 1004.9 hPa | 0 mm | - | 315 W/m² | - |
| 1778060590 | 13.33° C | 73% | 1004.7 hPa | 0 mm | - | 304 W/m² | - |
| 1778059990 | 13.33° C | 76% | 1004.9 hPa | 0 mm | - | 241 W/m² | - |
| 1778059390 | 13.33° C | 76% | 1005.1 hPa | 0 mm | - | 250 W/m² | - |
| 1778058790 | 13.33° C | 75% | 1005.1 hPa | 0 mm | - | 272 W/m² | - |
| 1778058190 | 13.33° C | 76% | 1005.1 hPa | 0 mm | - | 288 W/m² | - |
| 1778057591 | 12.78° C | 78% | 1005.1 hPa | 0 mm | - | 287 W/m² | - |
| 1778056990 | 12.78° C | 79% | 1005.1 hPa | 0 mm | - | 234 W/m² | - |
| 1778056391 | 12.78° C | 80% | 1005.1 hPa | 0 mm | - | 255 W/m² | - |
| 1778055790 | 12.78° C | 79% | 1005 hPa | 0 mm | - | 225 W/m² | - |
| 1778055190 | 12.78° C | 81% | 1005 hPa | 0 mm | - | 345 W/m² | - |
* Rain latest hour (hover to see other rain measurements)
** Current wind speed in m/s (hover to see current wind gust speed)